Location: Bonny Doon Airfield
(37.0704°N, 122.1252°W)
Time: 21:15:23
(UTC-07:00)

Vanguard 1 Rocket - All Passes

Search period start: 22 October 2017 00:00
Search period end: 01 November 2017 00:00
Orbit: 655 x 4222 km, 34.3° (Epoch: 22 October)

Date Brightness Start Highest point End Pass type
(mag) Time Alt. Az. Time Alt. Az. Time Alt. Az.
22 Oct - 03:46:34 10° S 03:52:44 13° SSE 03:57:36 10° SE visible
22 Oct - 06:09:50 10° SW 06:20:07 34° SSE 06:26:07 10° E visible
22 Oct - 08:38:09 10° WSW 08:45:41 62° S 08:50:25 10° E daylight
22 Oct - 11:05:31 10° W 11:10:19 51° SSW 11:14:38 10° ESE daylight
22 Oct - 13:31:56 10° WSW 13:34:44 16° SSW 13:37:57 10° SSE daylight
23 Oct - 04:57:15 10° SSW 05:08:22 27° SSE 05:15:12 10° ESE visible
23 Oct - 07:25:12 10° WSW 07:34:44 53° SSE 07:40:10 10° E daylight
23 Oct - 09:53:44 10° W 09:59:46 65° S 10:04:10 10° ESE daylight
23 Oct - 12:20:22 10° W 12:24:05 26° SSW 12:28:02 10° SE daylight
24 Oct - 03:45:28 10° SSW 03:56:07 20° SSE 04:03:23 10° ESE visible
24 Oct - 06:11:52 10° SW 06:23:28 44° SSE 06:29:49 10° E visible
24 Oct - 08:41:13 10° WSW 08:49:03 68° S 08:53:52 10° E daylight
24 Oct - 11:08:53 10° W 11:13:38 41° SSW 11:17:48 10° SE daylight
25 Oct - 02:35:46 10° S 02:43:24 14° SSE 02:49:28 10° ESE visible
25 Oct - 04:58:32 10° SW 05:11:43 35° SSE 05:19:10 10° E visible
25 Oct - 07:27:58 10° WSW 07:38:05 62° S 07:43:39 10° E daylight
25 Oct - 09:56:58 10° W 10:03:07 60° S 10:07:31 10° ESE daylight
25 Oct - 12:24:14 10° WSW 12:27:18 18° SSW 12:30:28 10° SSE daylight
26 Oct - 03:45:42 10° SSW 03:59:27 28° SSE 04:07:56 10° E visible
26 Oct - 06:14:11 10° WSW 06:26:45 54° SSE 06:33:23 10° E visible
26 Oct - 08:44:19 10° W 08:52:24 70° S 08:57:17 10° E daylight
26 Oct - 11:12:20 10° W 11:16:52 32° SSW 11:20:48 10° SE daylight
27 Oct - 02:34:05 10° S 02:46:43 20° SSE 02:55:31 10° ESE visible
27 Oct - 05:00:14 10° SW 05:15:00 45° SSE 05:22:54 10° E visible
27 Oct - 07:30:51 10° WSW 07:41:24 69° S 07:47:06 10° E daylight
27 Oct - 10:00:14 10° W 10:06:25 51° SSW 10:10:48 10° ESE daylight
27 Oct - 12:28:52 10° SW 12:30:27 12° SSW 12:32:03 10° S daylight
28 Oct - 01:25:23 10° SSE 01:33:30 13° SE 01:40:15 10° ESE visible
28 Oct - 03:46:37 10° SSW 04:02:42 36° SSE 04:11:58 10° E visible
28 Oct - 06:16:43 10° WSW 06:30:03 63° SSE 06:36:52 10° E visible
28 Oct - 08:47:27 10° W 08:55:45 68° S 09:00:41 10° ESE daylight
28 Oct - 11:15:55 10° W 11:20:01 24° SSW 11:23:35 10° SSE daylight
29 Oct - 02:33:53 10° SSW 02:49:55 28° SSE 03:00:13 10° E visible
29 Oct - 05:02:15 10° SW 05:18:14 54° SSE 05:26:28 10° E visible
29 Oct - 07:33:49 10° W 07:44:44 73° S 07:50:33 10° E daylight
29 Oct - 10:03:30 10° W 10:09:39 42° SSW 10:13:59 10° SE daylight
30 Oct - 01:22:53 10° S 01:36:41 20° SE 01:46:54 10° ESE visible
30 Oct - 03:47:59 10° SW 04:05:54 45° SSE 04:15:42 10° E visible
30 Oct - 06:19:23 10° WSW 06:33:19 70° S 06:40:20 10° E visible
30 Oct - 08:50:35 10° W 08:59:03 62° SSW 09:04:03 10° ESE daylight
30 Oct - 11:19:47 10° WSW 11:23:05 17° SW 11:25:59 10° S daylight
31 Oct - 00:16:23 10° SSE 00:23:09 12° SE 00:29:10 10° ESE night (unlit)
31 Oct - 02:34:27 10° SSW 02:53:02 35° SSE 03:04:20 10° E visible
31 Oct - 05:04:30 10° WSW 05:21:27 62° SSE 05:29:57 10° E visible
31 Oct - 07:36:49 10° W 07:48:02 74° S 07:53:58 10° E daylight
31 Oct - 10:06:51 10° W 10:12:47 33° SSW 10:17:01 10° SE daylight
